Home   Weather   Delémont   Past weeks

Flag for Switzerland Past Weather in Delémont, Jura, Switzerland — Yesterday and Last 2 Weeks

Now
31 °F

Chilly.


Feels Like: 27 °F
Forecast: 21 / 44 °F
Wind: 3 mph from Southwest

Location: Grenchen

Current Time: Dec 9, 2016 at 3:20:08 am

Latest Report: Dec 9, 2016 at 2:00 am


Visibility: N/A

Pressure: 30.65 "Hg

Humidity: 99%

Dew Point: 30 °F

Location of DelémontLocation

Past Weather in Delémont — Graph

°F

Delémont Temperature Yesterday

Maximum temperature yesterday: 34 °F (at 1:00 pm)
Minimum temperature yesterday: 30 °F (at 12:00 am)
Average temperature yesterday: 32 °F

High & Low Weather Summary for the Past Weeks

 TemperatureHumidityPressure
High46 °F (Nov 24, 3:00 pm)100% (Nov 24, 9:00 am)30.72 "Hg (Nov 24, 9:00 am)
Low22 °F (Nov 30, 5:00 am)52% (Nov 28, 4:00 pm)29.85 "Hg (Nov 25, 5:00 am)
Average34 °F90%30.32 "Hg
* Reported Nov 24 2:00 am — Dec 9 2:00 am, Delémont, Weather by CustomWeather, © 2016

Note: Actual official high and low records may vary slightly from our data, if they occured in-between our weather recording intervals... More about our weather records

Advertising

Delémont Weather History for the Previous 24 Hours

Scroll right to see more
 ConditionsComfort  
Time TempWeatherWind HumidityBarometerVisibility
2:00 am
Fri, Dec 9
31 °FChilly.3 mph99%30.65 "HgN/A
1:00 am31 °FChilly.3 mph99%30.66 "HgN/A
12:00 am31 °FChilly.3 mph99%30.66 "HgN/A
11:00 pm
Thu, Dec 8
32 °FChilly.5 mph100%30.66 "HgN/A
10:00 pm32 °FChilly.5 mph99%30.65 "HgN/A
9:00 pm32 °FChilly.5 mph99%30.65 "HgN/A
8:00 pm32 °FChilly.3 mph99%30.65 "HgN/A
4:00 pm33 °FChilly.5 mph97%30.63 "HgN/A
3:00 pm33 °FChilly.5 mph97%30.63 "HgN/A
1:00 pm34 °FChilly.7 mph99%30.67 "HgN/A
12:00 pm33 °FChilly.7 mph99%30.68 "HgN/A
11:00 am32 °FChilly.5 mph99%30.71 "HgN/A
10:00 am32 °FChilly.5 mph100%30.72 "HgN/A
9:00 am31 °FChilly.5 mph99%30.72 "HgN/A
8:00 am31 °FChilly.5 mph99%30.71 "HgN/A
7:00 am31 °FChilly.2 mph99%30.71 "HgN/A
6:00 am31 °FChilly.5 mph99%30.71 "HgN/A
5:00 am31 °FChilly.3 mph99%30.70 "HgN/A
4:00 am31 °FChilly.2 mph100%30.69 "HgN/A
Weather by CustomWeather, © 2016

See weather overviewHow to use our weather pages